Weather observations for the past three days for
Soldotna
Imperial (Metric)
Date Time (akdt) Wind (mph) Vis. (mi.) Weather Sky Cond. Temperature (ºF) Relative Humidity Wind Chill (°F) Heat Index (°F) Pressure Precipitation (in)
Air Dwpt 6 hour altimeter (in) sea level (mb) 1 hr 3 hr 6 hr
Max. Min.
12 21:56 W 5 10.00 Fair CLR 51.1 39 55 51.1 64% 30.21 1023.8
12 20:56 SW 3 10.00 A Few Clouds FEW055 52 37.9 59% 30.2 1023.4
12 19:56 SW 8 10.00 Fair CLR 53.1 36 52% 30.19 1022.9
12 18:56 W 8 10.00 Fair CLR 54 37 53% 30.18 1022.7
12 17:56 W 15 10.00 Fair CLR 54 36 51% 30.16 1022.0
12 16:56 W 12 10.00 Fair CLR 54 35.1 49% 30.16 1022.0
12 15:56 NW 10 10.00 Fair CLR 55 37.9 55 48.9 53% 30.15 1021.6
12 14:56 W 12 10.00 Fair CLR 55 37.9 53% 30.14 1021.3
12 13:56 W 9 10.00 Partly Cloudy SCT050 54 37.9 55% 30.13 1021.0
12 12:56 NW 8 10.00 Fair CLR 52 39.9 64% 30.13 1020.7
12 11:56 NW 10 10.00 Overcast OVC055 51.1 39 64% 30.12 1020.5
12 10:56 Calm 10.00 Overcast OVC049 51.1 39.9 66% 30.11 1020.2
12 09:56 SW 5 10.00 Overcast OVC049 48.9 41 50 44.1 74% 48 30.09 1019.7
12 08:56 Vrbl 7 10.00 Overcast OVC047 48.9 42.1 77% 46 30.09 1019.4
12 07:56 Vrbl 3 10.00 Light Rain OVC045 46 43 89% 30.07 1018.9
12 05:56 S 5 10.00 Overcast BKN045 OVC055 44.1 43 96% 42 30.04 1018.0
12 04:56 S 3 10.00 Mostly Cloudy FEW045 BKN070 44.1 43 96% 30.03 1017.5
12 03:56 S 5 10.00 Light Rain OVC043 44.1 44.1 48 44.1 100% 42 30.02 1017.1
12 02:56 S 7 10.00 Light Rain BKN042 OVC050 44.1 44.1 100% 41 30.01 1016.7
12 01:56 S 3 10.00 Mostly Cloudy BKN044 BKN060 45 44.1 97% 29.99 1016.3
12 00:56 SW 6 10.00 Partly Cloudy SCT040 45 43 93% 42 29.98 1015.9
11 23:56 SW 3 10.00 Light Rain BKN042 BKN049 46 43 89% 29.97 1015.4
11 22:56 Calm 10.00 Mostly Cloudy FEW039 BKN049 46.9 42.1 83% 29.96 1015.0
11 21:56 SW 8 10.00 Overcast OVC048 48 42.1 51.1 48 80% 45 29.93 1014.3
11 20:56 W 8 10.00 Light Rain BKN060 48.9 42.1 77% 46 29.91 1013.6
11 19:56 SW 9 10.00 Overcast OVC050 50 43 77% 47 29.9 1013.0
11 18:56 W 8 10.00 Partly Cloudy FEW044 SCT055 50 44.1 80% 47 29.88 1012.4
11 17:56 W 12 10.00 Light Rain BKN100 48.9 45 86% 45 29.86 1011.8
11 16:56 SW 14 10.00 Partly Cloudy SCT070 48.9 44.1 83% 44 29.85 1011.5
11 15:56 SW 12 10.00 A Few Clouds FEW090 51.1 43 54 50 74% 29.83 1010.9
11 14:56 W 10 10.00 A Few Clouds FEW090 53.1 44.1 72% 29.82 1010.3
11 13:56 NW 8 10.00 Mostly Cloudy BKN060 53.1 44.1 72% 29.8 1009.8
11 12:56 W 7 10.00 Fair CLR 52 45 77% 29.79 1009.5
11 11:56 W 7 10.00 Light Rain FEW075 51.1 45 80% 29.79 1009.4
11 10:56 SW 6 10.00 Overcast OVC080 51.1 43 74% 29.79 1009.2
11 09:56 W 5 10.00 Mostly Cloudy BKN080 50 44.1 50 46 80% 49 29.77 1008.7
11 08:56 Calm 10.00 A Few Clouds FEW070 48 44.1 86% 29.77 1008.8
11 07:56 SW 3 10.00 Fair CLR 46.9 43 86% 29.77 1008.8
11 06:56 Calm 10.00 Fair CLR 46.9 43 86% 29.77 1008.6
11 05:56 W 3 10.00 Fair CLR 46 43 89% 29.76 1008.4
11 03:56 Calm 10.00 Light Rain CLR 46.9 42.1 52 43 83% 29.76 1008.5
11 02:56 Calm 10.00 Overcast BKN070 OVC100 44.1 41 89% 29.76 1008.5
11 01:56 Calm 10.00 Mostly Cloudy BKN090 46 39 77% 29.76 1008.4
11 00:56 Calm 10.00 Overcast OVC120 48 39 71% 29.77 1008.6
10 23:56 Calm 10.00 Overcast BKN080 OVC110 48.9 39.9 71% 29.76 1008.5
10 22:56 W 5 10.00 Fair CLR 51.1 39 64% 29.76 1008.4
10 21:56 W 9 10.00 A Few Clouds FEW080 52 39 66 52 61% 29.75 1008.1
10 20:56 W 9 10.00 A Few Clouds FEW075 53.1 39.9 61% 29.75 1008.0
10 19:56 W 14 10.00 Mostly Cloudy BKN070 55 42.1 62% 29.74 1007.8
10 18:56 NW 7 10.00 Overcast BKN060 OVC090 60.1 41 50% 29.73 1007.5
10 17:56 E 12 G 18 10.00 Mostly Cloudy BKN085 64.9 37.9 37% 29.73 1007.2
10 16:56 E 15 10.00 Mostly Cloudy BKN070 BKN110 64.9 37.9 37% 29.73 1007.1
10 15:56 SE 14 G 20 10.00 A Few Clouds FEW065 63 37 66.9 57 38% 29.72 1007.0
10 14:56 Vrbl 7 10.00 Overcast OVC070 62.1 37.9 41% 29.73 1007.1
10 13:56 E 12 10.00 Mostly Cloudy BKN070 BKN090 63 39 41% 29.72 1007.0
10 12:56 E 12 G 17 10.00 A Few Clouds FEW090 61 37 41% 29.73 1007.3
10 11:56 E 12 10.00 Mostly Cloudy FEW060 BKN085 60.1 37 42% 29.73 1007.2
10 10:56 NE 7 10.00 Partly Cloudy SCT100 59 37 44% 29.74 1007.7
10 09:56 NE 12 10.00 Fair CLR 57 37 57 48.9 47% 29.74 1007.7
10 08:56 NE 7 10.00 Fair CLR 57 37.9 49% 29.75 1007.9
10 07:56 N 5 10.00 Mostly Cloudy BKN110 55 39 55% 29.75 1008.0
10 06:56 Calm 10.00 Fair CLR 51.1 41 69% 29.75 1008.1
10 05:56 NE 7 10.00 Mostly Cloudy SCT085 BKN120 51.1 39.9 66% 29.76 1008.2
10 04:56 Calm 10.00 Partly Cloudy SCT110 51.1 39.9 66% 29.75 1008.1
10 03:56 NE 6 10.00 Overcast OVC100 51.1 42.1 55.9 51.1 71% 29.75 1008.2
10 02:56 N 6 10.00 Overcast OVC100 52 41 66% 29.77 1008.6
10 01:56 N 6 10.00 Overcast OVC100 52 39 61% 29.77 1008.6
10 00:56 N 6 10.00 Overcast OVC120 53.1 39 59% 29.77 1008.7
09 23:56 NE 5 10.00 A Few Clouds FEW120 54 39 57% 29.77 1008.4
09 22:56 Vrbl 5 10.00 Fair CLR 55 37.9 53% 29.77 1008.6
Date Time (akdt) Wind (mph) Vis. (mi.) Weather Sky Cond. Air Dwpt Max. Min. Relative Humidity Wind Chill (°F) Heat Index (°F) altimeter (in) sea level (mb) 1 hr 3 hr 6 hr
6 hour
Temperature (ºF) Pressure Precipitation (in)